SCP
-0 -0 -0 0 -0 0 0 0 0 0 0 0 0 0 0 0 0 0 0 0 0 -0 -0 -0 -0 -0 -0 -0 -0 -0 -0 -0 -0 0 0 0 0 0
0 -0 0 -0 -0 -0 0 0 0 0 0 0 0 0 0 1 0 0 0 0 0 0 -0 -0 -0 -0 -0 0 0 0 -0 -0 0 0 0 0 0 0
0 -0 0 -0 -0 -0 0 0 0 0 0 0 0 0 0 0 0 0 0 0 0 0 -0 -0 -0 -0 -0 -0 -0 -0 0 0 0 0 0 0 0 0
0 0 0 0 -0 -0 0 0 0 0 0 0 0 0 0 0 0 0 0 0 -0 -0 -0 -0 -0 -0 -0 -0 0 0 0 0 0 0 0 0 0 0
0 0 0 0 0 0 0 0 0 0 0 0 0 0 0 0 0 0 0 -0 0 0 0 0 0 0 0 0 0 0 0 0 0 0 0 0 0 0
0 0 0 0 0 0 0 0 0 0 0 0 0 0 0 0 -0 0 0 0 -0 0 0 0 0 0 0 0 0 0 0 0 0 0 0 0 0 0
0 0 0 0 0 0 0 0 0 0 0 0 -0 0 0 0 0 0 0 0 0 0 0 0 0 0 0 0 0 0 0 0 0 0 0 0 0 0
0 -0 0 0 0 0 0 0 0 0 0 0 0 0 0 0 0 0 0 0 0 0 0 0 0 0 0 0 0 0 0 0 0 0 0 0 0 0
0 0 0 -0 0 0 0 0 0 0 0 0 0 0 0 0 0 0 0 0 0 0 0 0 0 0 0 0 0 0 0 0 0 0 0 0 0 0
-0 -0 -0 -0 0 0 0 0 0 0 0 0 0 0 0 0 0 0 0 0 0 0 0 0 0 0 0 0 0 0 0 0 0 0 0 0 0 0
-0 -0 -0 -0 0 0 0 0 0 0 0 0 0 0 0 0 0 0 0 0 0 0 0 0 0 0 0 0 0 0 0 0 0 0 0 0 0 0
-0 -0 -0 0 -0 0 0 0 0 0 1 0 0 0 0 0 0 0 0 0 0 0 0 0 0 0 0 0 0 0 0 0 0 0 0 0 0 0
0 0 0 0 0 0 0 0 0 0 0 0 0 0 0 0 0 0 0 0 0 0 0 0 0 0 0 0 0 0 0 0 0 0 0 0 0 0
0 0 0 0 0 0 -0 0 0 0 0 0 0 0 0 0 0 1 0 0 0 0 0 0 0 0 0 0 0 0 0 0 0 0 0 0 0 0
0 0 0 0 0 0 0 0 0 0 0 0 0 0 0 0 0 1 1 0 0 0 0 0 0 0 0 0 0 0 0 0 0 0 0 0 0 0
0 0 0 0 0 0 0 -0 0 0 0 0 0 0 0 0 0 0 0 0 1 0 0 0 0 0 0 0 0 0 0 0 0 0 0 0 0 0
0 1 0 0 0 0 0 0 0 0 0 0 0 0 0 0 0 0 0 0 0 0 0 0 0 0 0 0 0 0 0 0 0 0 0 0 0 0
0 0 1 1 0 1 0 0 0 0 0 0 0 0 0 0 0 0 0 0 0 0 0 0 0 0 0 0 0 0 0 0 0 0 0 0 0 0
0 0 1 1 1 1 1 1 1 0 0 0 0 0 0 0 0 0 0 0 0 0 0 0 0 0 0 0 0 0 0 0 0 0 0 0 0 0
0 0 0 1 1 0 0 0 1 1 0 0 0 0 0 0 0 0 0 0 0 0 0 0 0 0 0 0 0 0 0 0 0 0 0 0 0 0
0 0 0 0 1 0 0 0 0 0 0 0 0 0 0 0 0 0 0 0 0 0 0 0 0 0 0 0 0 0 0 0 0 0 0 0 0 0
0 0 0 0 0 0 0 0 0 0 0 1 0 0 0 0 0 0 0 0 0 0 0 0 0 0 0 0 0 0 0 0 0 0 0 0 0 0
0 0 0 0 0 0 0 0 0 0 0 1 1 0 0 0 0 0 0 0 0 0 0 0 0 0 0 0 0 0 0 0 0 0 0 0 0 0
Wind_Speed_500mb
54 54 58 57 51 46 39 35 33 26 23 22 24 30 29 33 31 37 16 22 30 37 38 35 37 34 34 33 32 31 30 29 29 28 29 32 33 33
59 57 59 55 54 52 43 40 39 30 31 27 33 34 31 35 40 35 27 22 23 27 30 33 34 39 38 37 36 36 35 35 36 37 37 38 37 38
60 66 65 61 57 60 48 47 46 39 36 35 33 29 33 44 37 39 36 22 20 20 21 20 22 30 30 31 30 32 36 38 41 43 42 41 43 42
64 61 70 67 59 60 57 49 53 46 38 31 29 35 33 40 36 27 25 22 24 28 28 27 22 20 23 27 29 30 33 38 41 44 47 47 46 45
57 63 64 67 61 62 67 59 55 49 42 34 25 16 13 27 36 28 24 19 28 32 35 36 29 31 26 22 21 22 23 22 27 29 29 35 41 43
46 55 61 66 65 61 61 66 58 48 45 44 34 33 26 18 32 30 28 29 30 37 32 28 31 37 33 33 32 29 24 23 20 22 30 38 34 32
30 44 48 53 56 54 58 60 57 55 54 49 51 38 29 30 40 33 35 29 36 31 31 28 26 26 30 33 35 35 33 30 26 25 31 35 29 24
42 44 50 56 53 54 58 54 59 61 53 52 40 44 45 25 22 29 32 34 37 32 29 31 37 36 30 28 27 28 38 36 30 25 27 32 26 21
42 44 52 58 46 44 47 49 44 55 60 54 57 51 44 46 38 32 35 36 34 30 38 48 34 37 35 35 29 29 29 37 32 24 23 27 22 21
50 51 50 54 41 47 53 46 43 45 49 52 56 57 51 45 42 34 34 37 42 41 39 47 20 19 22 30 29 26 22 30 32 23 21 20 25 26
31 33 40 52 50 46 55 51 48 49 50 52 55 51 47 45 44 42 45 42 41 34 22 24 29 28 27 21 23 22 26 32 30 25 23 23 26 29
17 16 38 50 52 51 55 55 60 57 56 52 53 59 56 52 49 46 43 48 46 44 36 36 23 26 30 28 26 25 20 22 27 27 26 24 25 25
52 38 34 33 47 52 59 63 67 60 53 52 54 48 45 47 50 51 48 51 50 50 44 38 28 25 30 30 30 27 24 23 22 22 22 23 25 25
56 66 68 40 30 57 56 60 47 47 46 43 58 59 58 58 60 54 49 51 51 48 38 45 49 39 37 35 34 32 22 25 30 29 26 24 24 25
61 67 65 61 51 37 58 62 64 66 70 68 64 62 66 63 61 65 59 50 46 45 47 46 47 50 47 43 40 42 32 31 25 24 27 24 22 17
66 60 59 68 72 65 55 64 64 65 72 79 74 67 60 62 60 56 57 56 55 56 59 55 43 45 39 30 33 37 40 45 42 33 25 21 21 23
79 68 63 61 74 76 73 74 57 64 68 66 71 76 71 63 61 59 66 65 65 64 63 57 46 42 37 35 39 35 34 35 29 25 27 25 26 25
59 59 58 60 63 66 72 74 66 58 58 62 66 67 67 62 64 59 61 67 70 69 65 56 50 46 47 50 49 38 33 32 31 27 31 30 27 27
51 48 56 56 51 46 54 66 72 67 64 56 57 59 65 71 70 65 62 65 67 63 60 52 52 55 60 64 46 35 28 29 34 37 34 30 33 24
63 67 58 52 53 48 44 45 58 62 66 61 63 64 62 66 69 68 73 75 75 73 67 62 62 65 68 60 54 45 39 35 41 38 33 30 21 16
65 68 74 70 60 54 52 54 48 51 50 52 61 69 64 71 74 73 72 74 82 82 78 76 74 67 59 58 53 50 45 38 39 34 29 36 34 33
63 61 65 73 73 62 56 62 60 62 57 59 55 52 59 67 83 85 94 85 79 79 74 73 65 67 73 67 61 51 43 38 35 29 29 44 39 39
61 64 61 65 67 66 62 69 76 79 69 68 66 62 56 58 58 69 72 72 89 84 67 65 68 74 77 70 61 50 42 35 36 31 27 41 36 30
Wind_Direction_500mb
245 241 242 239 235 231 230 238 241 233 240 241 211 217 225 209 217 217 230 256 261 272 268 269 265 260 259 260 264 268 272 269 271 278 281 279 278 280
247 241 240 241 235 225 227 235 239 233 244 242 229 236 245 247 222 228 227 244 271 277 278 264 258 257 261 259 264 264 269 267 269 275 280 279 277 274
249 238 237 243 242 226 226 231 238 232 229 250 241 251 237 234 225 249 230 245 263 259 270 273 254 254 260 265 266 262 266 269 273 279 280 278 278 276
253 249 244 244 242 231 225 230 229 234 233 246 254 254 238 229 246 242 221 238 254 256 259 275 267 258 272 272 268 269 273 276 279 281 280 281 279 276
262 250 244 238 237 234 225 232 228 232 232 238 236 218 228 217 214 231 238 242 251 253 254 254 244 250 260 263 267 274 284 290 291 296 306 298 286 279
273 245 242 235 236 233 225 228 230 231 231 228 241 242 231 220 224 228 235 242 252 259 259 263 273 269 248 249 256 265 267 284 285 309 322 325 306 288
273 259 243 243 233 233 226 229 230 230 233 225 229 235 238 227 228 234 226 244 253 254 261 268 273 261 253 253 259 261 259 268 277 301 319 328 310 299
282 269 258 249 233 236 231 235 228 228 236 233 227 230 224 225 218 219 228 241 246 245 256 266 281 270 256 256 263 258 262 263 267 289 316 327 309 300
295 278 265 247 240 242 232 228 236 229 225 227 228 230 231 237 247 259 255 257 255 259 274 281 272 261 257 262 273 270 261 253 256 278 308 319 309 303
305 278 281 278 247 249 251 239 234 229 225 227 233 235 239 240 249 258 264 263 259 264 274 272 269 271 260 265 268 268 269 244 251 271 296 307 303 301
286 308 288 278 259 258 250 251 239 233 233 236 239 240 243 240 247 258 254 261 261 263 246 265 261 262 262 271 267 255 267 247 252 260 285 285 291 299
291 264 276 305 286 246 242 240 243 237 238 237 235 241 246 249 245 246 252 250 256 269 264 266 263 251 251 251 255 263 255 249 253 267 281 270 288 288
242 239 240 266 254 249 238 237 241 241 240 250 246 241 241 246 249 242 248 252 258 263 268 254 257 236 243 259 265 265 271 242 263 278 274 273 276 273
251 255 251 261 244 230 238 235 237 241 235 246 246 245 245 250 252 254 253 252 256 260 263 254 246 251 264 269 261 261 245 254 267 273 274 274 261 275
252 254 253 257 253 258 242 246 244 247 245 246 250 247 246 250 254 258 257 255 257 255 251 254 248 252 260 267 267 258 255 256 250 264 269 266 273 266
249 256 260 260 255 253 252 247 245 247 248 250 251 255 257 261 261 258 251 254 255 253 252 256 258 252 256 249 255 256 257 262 270 271 265 271 270 275
238 245 258 257 255 253 251 250 248 243 245 247 246 251 259 263 266 257 250 256 255 255 252 253 251 241 241 245 250 252 263 259 255 249 253 263 266 277
245 245 253 256 255 255 252 250 249 247 249 246 250 252 254 257 263 264 256 254 256 256 255 247 241 239 240 244 248 252 259 258 243 244 254 262 265 273
264 253 246 252 262 267 268 260 251 250 255 253 252 254 255 256 259 256 252 252 253 249 246 246 238 236 235 238 248 248 248 254 245 249 258 262 279 222
261 259 261 257 258 263 277 263 250 251 252 251 252 251 250 249 250 247 248 246 245 247 248 247 242 234 234 241 243 252 250 243 239 243 250 253 217 228
263 261 258 259 260 261 263 257 249 245 244 251 256 252 252 256 254 248 250 253 251 246 248 248 247 242 241 234 232 244 247 245 232 242 253 225 224 226
262 266 261 257 258 258 257 256 247 246 252 254 251 253 256 255 255 256 258 248 252 250 252 258 248 231 228 228 236 246 246 239 239 244 249 213 218 209
262 263 262 259 258 254 256 250 246 247 248 246 251 253 260 259 264 257 239 257 246 250 254 252 231 232 229 231 236 235 228 240 221 234 233 211 214 219
Wind_Speed_850mb
54 54 58 57 51 46 39 35 33 26 23 22 24 30 29 33 31 37 16 22 30 37 38 35 37 34 34 33 32 31 30 29 29 28 29 32 33 33
59 57 59 55 54 52 43 40 39 30 31 27 33 34 31 35 40 35 27 22 23 27 30 33 34 39 38 37 36 36 35 35 36 37 37 38 37 38
60 66 65 61 57 60 48 47 46 39 36 35 33 29 33 44 37 39 36 22 20 20 21 20 22 30 30 31 30 32 36 38 41 43 42 41 43 42
64 61 70 67 59 60 57 49 53 46 38 31 29 35 33 40 36 27 25 22 24 28 28 27 22 20 23 27 29 30 33 38 41 44 47 47 46 45
57 63 64 67 61 62 67 59 55 49 42 34 25 16 13 27 36 28 24 19 28 32 35 36 29 31 26 22 21 22 23 22 27 29 29 35 41 43
46 55 61 66 65 61 61 66 58 48 45 44 34 33 26 18 32 30 28 29 30 37 32 28 31 37 33 33 32 29 24 23 20 22 30 38 34 32
30 44 48 53 56 54 58 60 57 55 54 49 51 38 29 30 40 33 35 29 36 31 31 28 26 26 30 33 35 35 33 30 26 25 31 35 29 24
42 44 50 56 53 54 58 54 59 61 53 52 40 44 45 25 22 29 32 34 37 32 29 31 37 36 30 28 27 28 38 36 30 25 27 32 26 21
42 44 52 58 46 44 47 49 44 55 60 54 57 51 44 46 38 32 35 36 34 30 38 48 34 37 35 35 29 29 29 37 32 24 23 27 22 21
50 51 50 54 41 47 53 46 43 45 49 52 56 57 51 45 42 34 34 37 42 41 39 47 20 19 22 30 29 26 22 30 32 23 21 20 25 26
31 33 40 52 50 46 55 51 48 49 50 52 55 51 47 45 44 42 45 42 41 34 22 24 29 28 27 21 23 22 26 32 30 25 23 23 26 29
17 16 38 50 52 51 55 55 60 57 56 52 53 59 56 52 49 46 43 48 46 44 36 36 23 26 30 28 26 25 20 22 27 27 26 24 25 25
52 38 34 33 47 52 59 63 67 60 53 52 54 48 45 47 50 51 48 51 50 50 44 38 28 25 30 30 30 27 24 23 22 22 22 23 25 25
56 66 68 40 30 57 56 60 47 47 46 43 58 59 58 58 60 54 49 51 51 48 38 45 49 39 37 35 34 32 22 25 30 29 26 24 24 25
61 67 65 61 51 37 58 62 64 66 70 68 64 62 66 63 61 65 59 50 46 45 47 46 47 50 47 43 40 42 32 31 25 24 27 24 22 17
66 60 59 68 72 65 55 64 64 65 72 79 74 67 60 62 60 56 57 56 55 56 59 55 43 45 39 30 33 37 40 45 42 33 25 21 21 23
79 68 63 61 74 76 73 74 57 64 68 66 71 76 71 63 61 59 66 65 65 64 63 57 46 42 37 35 39 35 34 35 29 25 27 25 26 25
59 59 58 60 63 66 72 74 66 58 58 62 66 67 67 62 64 59 61 67 70 69 65 56 50 46 47 50 49 38 33 32 31 27 31 30 27 27
51 48 56 56 51 46 54 66 72 67 64 56 57 59 65 71 70 65 62 65 67 63 60 52 52 55 60 64 46 35 28 29 34 37 34 30 33 24
63 67 58 52 53 48 44 45 58 62 66 61 63 64 62 66 69 68 73 75 75 73 67 62 62 65 68 60 54 45 39 35 41 38 33 30 21 16
65 68 74 70 60 54 52 54 48 51 50 52 61 69 64 71 74 73 72 74 82 82 78 76 74 67 59 58 53 50 45 38 39 34 29 36 34 33
63 61 65 73 73 62 56 62 60 62 57 59 55 52 59 67 83 85 94 85 79 79 74 73 65 67 73 67 61 51 43 38 35 29 29 44 39 39
61 64 61 65 67 66 62 69 76 79 69 68 66 62 56 58 58 69 72 72 89 84 67 65 68 74 77 70 61 50 42 35 36 31 27 41 36 30
Wind_Direction_850mb
245 241 242 239 235 231 230 238 241 233 240 241 211 217 225 209 217 217 230 256 261 272 268 269 265 260 259 260 264 268 272 269 271 278 281 279 278 280
247 241 240 241 235 225 227 235 239 233 244 242 229 236 245 247 222 228 227 244 271 277 278 264 258 257 261 259 264 264 269 267 269 275 280 279 277 274
249 238 237 243 242 226 226 231 238 232 229 250 241 251 237 234 225 249 230 245 263 259 270 273 254 254 260 265 266 262 266 269 273 279 280 278 278 276
253 249 244 244 242 231 225 230 229 234 233 246 254 254 238 229 246 242 221 238 254 256 259 275 267 258 272 272 268 269 273 276 279 281 280 281 279 276
262 250 244 238 237 234 225 232 228 232 232 238 236 218 228 217 214 231 238 242 251 253 254 254 244 250 260 263 267 274 284 290 291 296 306 298 286 279
273 245 242 235 236 233 225 228 230 231 231 228 241 242 231 220 224 228 235 242 252 259 259 263 273 269 248 249 256 265 267 284 285 309 322 325 306 288
273 259 243 243 233 233 226 229 230 230 233 225 229 235 238 227 228 234 226 244 253 254 261 268 273 261 253 253 259 261 259 268 277 301 319 328 310 299
282 269 258 249 233 236 231 235 228 228 236 233 227 230 224 225 218 219 228 241 246 245 256 266 281 270 256 256 263 258 262 263 267 289 316 327 309 300
295 278 265 247 240 242 232 228 236 229 225 227 228 230 231 237 247 259 255 257 255 259 274 281 272 261 257 262 273 270 261 253 256 278 308 319 309 303
305 278 281 278 247 249 251 239 234 229 225 227 233 235 239 240 249 258 264 263 259 264 274 272 269 271 260 265 268 268 269 244 251 271 296 307 303 301
286 308 288 278 259 258 250 251 239 233 233 236 239 240 243 240 247 258 254 261 261 263 246 265 261 262 262 271 267 255 267 247 252 260 285 285 291 299
291 264 276 305 286 246 242 240 243 237 238 237 235 241 246 249 245 246 252 250 256 269 264 266 263 251 251 251 255 263 255 249 253 267 281 270 288 288
242 239 240 266 254 249 238 237 241 241 240 250 246 241 241 246 249 242 248 252 258 263 268 254 257 236 243 259 265 265 271 242 263 278 274 273 276 273
251 255 251 261 244 230 238 235 237 241 235 246 246 245 245 250 252 254 253 252 256 260 263 254 246 251 264 269 261 261 245 254 267 273 274 274 261 275
252 254 253 257 253 258 242 246 244 247 245 246 250 247 246 250 254 258 257 255 257 255 251 254 248 252 260 267 267 258 255 256 250 264 269 266 273 266
249 256 260 260 255 253 252 247 245 247 248 250 251 255 257 261 261 258 251 254 255 253 252 256 258 252 256 249 255 256 257 262 270 271 265 271 270 275
238 245 258 257 255 253 251 250 248 243 245 247 246 251 259 263 266 257 250 256 255 255 252 253 251 241 241 245 250 252 263 259 255 249 253 263 266 277
245 245 253 256 255 255 252 250 249 247 249 246 250 252 254 257 263 264 256 254 256 256 255 247 241 239 240 244 248 252 259 258 243 244 254 262 265 273
264 253 246 252 262 267 268 260 251 250 255 253 252 254 255 256 259 256 252 252 253 249 246 246 238 236 235 238 248 248 248 254 245 249 258 262 279 222
261 259 261 257 258 263 277 263 250 251 252 251 252 251 250 249 250 247 248 246 245 247 248 247 242 234 234 241 243 252 250 243 239 243 250 253 217 228
263 261 258 259 260 261 263 257 249 245 244 251 256 252 252 256 254 248 250 253 251 246 248 248 247 242 241 234 232 244 247 245 232 242 253 225 224 226
262 266 261 257 258 258 257 256 247 246 252 254 251 253 256 255 255 256 258 248 252 250 252 258 248 231 228 228 236 246 246 239 239 244 249 213 218 209
262 263 262 259 258 254 256 250 246 247 248 246 251 253 260 259 264 257 239 257 246 250 254 252 231 232 229 231 236 235 228 240 221 234 233 211 214 219